Home > Weather > Jørpeland > Past weeks

Flag for Norway Past Weather in Jørpeland, Norway — Yesterday and Last 2 Weeks

Now
63 °F

Rain. Partly cloudy.


Feels Like: 63 °F
Forecast: 54 / 68 °F
Wind: 6 mph from Northeast

Location: Stavanger / Sola

Current Time: Jun 1, 2016 at 3:45:40 AM

Latest Report: Jun 1, 2016 at 2:50 AM


Visibility: 3 mi

Pressure: 30.18 "Hg

Humidity: 94%

Dew Point: 61 °F

Location of JørpelandLocation

Past Weather in Jørpeland — Graph

°F

Jørpeland Temperature Yesterday

Maximum temperature yesterday: 73 °F (at 12:50 PM)
Minimum temperature yesterday: 57 °F (at 12:20 AM)
Average temperature yesterday: 65 °F

High & Low Weather Summary for the Past Weeks

 TemperatureHumidityPressure
High73 °F (May 31, 12:50 PM)100% (May 19, 12:50 AM)30.18 "Hg (May 19, 12:50 AM)
Low45 °F (May 17, 6:20 AM)37% (May 25, 2:50 PM)29.62 "Hg (May 20, 9:50 AM)
Average55 °F81%29.94 "Hg
* Reported May 17 1:50 AM — Jun 1 1:50 AM, Jørpeland, Weather by CustomWeather, © 2016

Note: Actual official high and low records may vary slightly from our data, if they occured in-between our weather recording intervals... More about our weather records

Advertising

Jørpeland Weather History for the Previous 24 Hours

Scroll right to see more
 ConditionsComfort  
Time TempWeatherWind HumidityBarometerVisibility
1:50 AM
Wed, Jun 1
63 °FLight rain. Passing clouds.2 mph94%30.18 "Hg4 mi
12:50 AM61 °FLight rain. Partly cloudy.6 mph94%30.18 "Hg3 mi
12:20 AM61 °FPassing clouds.3 mph94%30.15 "Hg4 mi
11:50 PM
Tue, May 31
61 °FPassing clouds.3 mph94%30.15 "Hg4 mi
11:20 PM63 °FThundershowers. Partly sunny.6 mph94%30.15 "HgN/A
10:50 PM63 °FLight rain. Broken clouds.8 mph88%30.15 "Hg6 mi
10:20 PM66 °FDrizzle. Partly sunny.7 mph78%30.12 "HgN/A
9:50 PM66 °FPartly sunny.8 mph83%30.12 "HgN/A
9:20 PM68 °FPartly sunny.3 mph78%30.12 "HgN/A
8:50 PM68 °FPartly sunny.5 mph78%30.12 "HgN/A
8:20 PM68 °FBroken clouds.3 mph73%30.09 "HgN/A
7:50 PM68 °FBroken clouds.8 mph73%30.09 "HgN/A
7:20 PM72 °FBroken clouds.10 mph65%30.09 "HgN/A
6:50 PM73 °FBroken clouds.12 mph57%30.09 "HgN/A
6:20 PM72 °FBroken clouds.12 mph65%30.09 "HgN/A
5:50 PM72 °FBroken clouds.12 mph69%30.09 "HgN/A
5:20 PM72 °FPartly sunny.10 mph65%30.09 "HgN/A
4:50 PM72 °FSprinkles. Partly sunny.12 mph65%30.09 "HgN/A
4:20 PM72 °FPartly sunny.10 mph61%30.12 "HgN/A
3:50 PM72 °FPartly sunny.12 mph65%30.12 "HgN/A
2:50 PM73 °FScattered clouds.12 mph57%30.12 "HgN/A
2:20 PM73 °FScattered clouds.12 mph57%30.12 "HgN/A
1:50 PM73 °FScattered clouds.12 mph57%30.12 "HgN/A
1:20 PM73 °FPassing clouds.12 mph61%30.12 "HgN/A
12:50 PM73 °FPassing clouds.12 mph61%30.12 "HgN/A
12:20 PM72 °FPassing clouds.10 mph69%30.12 "HgN/A
11:50 AM70 °FPassing clouds.8 mph69%30.12 "HgN/A
11:20 AM68 °FPassing clouds.8 mph73%30.12 "HgN/A
10:50 AM68 °FPassing clouds.8 mph78%30.09 "HgN/A
10:20 AM64 °FScattered clouds.8 mph83%30.12 "HgN/A
9:50 AM63 °FScattered clouds.10 mph88%30.09 "HgN/A
9:20 AM63 °FScattered clouds.7 mph83%30.09 "HgN/A
8:50 AM61 °FPartly sunny.7 mph94%30.09 "HgN/A
8:20 AM59 °FSprinkles. Partly sunny.6 mph94%30.09 "HgN/A
7:50 AM59 °FBroken clouds.7 mph88%30.09 "HgN/A
7:20 AM57 °FBroken clouds.2 mph100%30.09 "HgN/A
6:50 AM57 °FBroken clouds.3 mph94%30.09 "HgN/A
6:20 AM57 °FPartly sunny.5 mph94%30.09 "HgN/A
5:50 AM57 °FBroken clouds.5 mph94%30.09 "HgN/A
4:50 AM57 °FPassing clouds.5 mph94%30.09 "HgN/A
3:50 AM57 °FPassing clouds.6 mph100%30.09 "HgN/A
Weather by CustomWeather, © 2016

See weather overviewHow to use our weather pages